Year,Month,Day,Hour,Minute,Value (Times are PST for temperature in C)
2008,02,14,00,00,-1.20
2008,02,14,00,01,-1.20
2008,02,14,00,02,-1.20
2008,02,14,00,03,-1.20
2008,02,14,00,04,-1.20
2008,02,14,00,05,-1.20
2008,02,14,00,06,-1.20
2008,02,14,00,07,-1.20
2008,02,14,00,08,-1.20
2008,02,14,00,09,-1.10
2008,02,14,00,10,-1.10
2008,02,14,00,11,-1.10
2008,02,14,00,12,-1.00
2008,02,14,00,13,-1.00
2008,02,14,00,14,-0.90
2008,02,14,00,15,-0.90
2008,02,14,00,16,-0.90
2008,02,14,00,17,-0.90
2008,02,14,00,18,-1.00
2008,02,14,00,19,-1.00
2008,02,14,00,20,-1.00
2008,02,14,00,21,-1.10
2008,02,14,00,22,-1.10
2008,02,14,00,23,-1.10
2008,02,14,00,24,-1.20
2008,02,14,00,25,-1.20
2008,02,14,00,26,-1.20
2008,02,14,00,27,-1.20
2008,02,14,00,28,-1.30
2008,02,14,00,29,-1.30
2008,02,14,00,30,-1.30
2008,02,14,00,31,-1.30
2008,02,14,00,32,-1.30
2008,02,14,00,33,-1.30
2008,02,14,00,34,-1.40
2008,02,14,00,35,-1.40
2008,02,14,00,36,-1.40
2008,02,14,00,37,-1.40
2008,02,14,00,38,-1.40
2008,02,14,00,39,-1.40
2008,02,14,00,40,-1.40
2008,02,14,00,41,-1.40
2008,02,14,00,42,-1.40
2008,02,14,00,43,-1.40
2008,02,14,00,44,-1.40
2008,02,14,00,45,-1.50
2008,02,14,00,46,-1.50
2008,02,14,00,47,-1.50
2008,02,14,00,48,-1.50
2008,02,14,00,49,-1.50
2008,02,14,00,50,-1.50
2008,02,14,00,51,-1.50
2008,02,14,00,52,-1.50
2008,02,14,00,53,-1.50
2008,02,14,00,54,-1.50
2008,02,14,00,55,-1.50
2008,02,14,00,56,-1.50
2008,02,14,00,57,-1.50
2008,02,14,00,58,-1.50
2008,02,14,00,59,-1.50
2008,02,14,01,00,-1.50
2008,02,14,01,01,-1.40
2008,02,14,01,02,-1.40
2008,02,14,01,03,-1.30
2008,02,14,01,04,-1.30
2008,02,14,01,05,-1.30
2008,02,14,01,06,-1.20
2008,02,14,01,07,-1.20
2008,02,14,01,08,-1.20
2008,02,14,01,09,-1.20
2008,02,14,01,10,-1.20
2008,02,14,01,11,-1.20
2008,02,14,01,12,-1.20
2008,02,14,01,13,-1.20
2008,02,14,01,14,-1.20
2008,02,14,01,15,-1.20
2008,02,14,01,16,-1.20
2008,02,14,01,17,-1.20
2008,02,14,01,18,-1.20
2008,02,14,01,19,-1.30
2008,02,14,01,20,-1.30
2008,02,14,01,21,-1.30
2008,02,14,01,22,-1.30
2008,02,14,01,23,-1.30
2008,02,14,01,24,-1.30
2008,02,14,01,25,-1.40
2008,02,14,01,26,-1.40
2008,02,14,01,27,-1.40
2008,02,14,01,28,-1.40
2008,02,14,01,29,-1.40
2008,02,14,01,30,-1.40
2008,02,14,01,31,-1.40
2008,02,14,01,32,-1.30
2008,02,14,01,33,-1.30
2008,02,14,01,34,-1.30
2008,02,14,01,35,-1.30
2008,02,14,01,36,-1.30
2008,02,14,01,37,-1.30
2008,02,14,01,38,-1.40
2008,02,14,01,39,-1.40
2008,02,14,01,40,-1.40
2008,02,14,01,41,-1.50
2008,02,14,01,42,-1.50
2008,02,14,01,43,-1.50
2008,02,14,01,44,-1.50
2008,02,14,01,45,-1.50
2008,02,14,01,46,-1.60
2008,02,14,01,47,-1.60
2008,02,14,01,48,-1.60
2008,02,14,01,49,-1.50
2008,02,14,01,50,-1.50
2008,02,14,01,51,-1.50
2008,02,14,01,52,-1.40
2008,02,14,01,53,-1.40
2008,02,14,01,54,-1.40
2008,02,14,01,55,-1.40
2008,02,14,01,56,-1.40
2008,02,14,01,57,-1.40
2008,02,14,01,58,-1.30
2008,02,14,01,59,-1.30
2008,02,14,02,00,-1.30
2008,02,14,02,01,-1.30
2008,02,14,02,02,-1.30
2008,02,14,02,03,-1.30
2008,02,14,02,04,-1.30
2008,02,14,02,05,-1.30
2008,02,14,02,06,-1.30
2008,02,14,02,07,-1.30
2008,02,14,02,08,-1.30
2008,02,14,02,09,-1.30
2008,02,14,02,10,-1.40
2008,02,14,02,11,-1.40
2008,02,14,02,12,-1.40
2008,02,14,02,13,-1.50
2008,02,14,02,14,-1.50
2008,02,14,02,15,-1.60
2008,02,14,02,16,-1.70
2008,02,14,02,17,-1.70
2008,02,14,02,18,-1.80
2008,02,14,02,19,-1.80
2008,02,14,02,20,-1.90
2008,02,14,02,21,-1.90
2008,02,14,02,22,-1.90
2008,02,14,02,23,-1.90
2008,02,14,02,24,-2.00
2008,02,14,02,25,-2.00
2008,02,14,02,26,-2.00
2008,02,14,02,27,-2.00
2008,02,14,02,28,-2.10
2008,02,14,02,29,-2.10
2008,02,14,02,30,-2.10
2008,02,14,02,31,-2.10
2008,02,14,02,32,-2.10
2008,02,14,02,33,-2.00
2008,02,14,02,34,-2.00
2008,02,14,02,35,-1.90
2008,02,14,02,36,-1.90
2008,02,14,02,37,-1.90
2008,02,14,02,38,-1.90
2008,02,14,02,39,-1.90
2008,02,14,02,40,-1.90
2008,02,14,02,41,-1.90
2008,02,14,02,42,-1.90
2008,02,14,02,43,-1.90
2008,02,14,02,44,-2.00
2008,02,14,02,45,-2.00
2008,02,14,02,46,-2.00
2008,02,14,02,47,-1.90
2008,02,14,02,48,-1.90
2008,02,14,02,49,-1.90
2008,02,14,02,50,-1.90
2008,02,14,02,51,-1.80
2008,02,14,02,52,-1.80
2008,02,14,02,53,-1.80
2008,02,14,02,54,-1.70
2008,02,14,02,55,-1.70
2008,02,14,02,56,-1.70
2008,02,14,02,57,-1.70
2008,02,14,02,58,-1.70
2008,02,14,02,59,-1.60
2008,02,14,03,00,-1.60
2008,02,14,03,01,-1.50
2008,02,14,03,02,-1.50
2008,02,14,03,03,-1.40
2008,02,14,03,04,-1.40
2008,02,14,03,05,-1.40
2008,02,14,03,06,-1.30
2008,02,14,03,07,-1.30
2008,02,14,03,08,-1.30
2008,02,14,03,09,-1.30
2008,02,14,03,10,-1.30
2008,02,14,03,11,-1.30
2008,02,14,03,12,-1.40
2008,02,14,03,13,-1.50
2008,02,14,03,14,-1.50
2008,02,14,03,15,-1.60
2008,02,14,03,16,-1.70
2008,02,14,03,17,-1.70
2008,02,14,03,18,-1.70
2008,02,14,03,19,-1.70
2008,02,14,03,20,-1.70
2008,02,14,03,21,-1.70
2008,02,14,03,22,-1.70
2008,02,14,03,23,-1.60
2008,02,14,03,24,-1.60
2008,02,14,03,25,-1.60
2008,02,14,03,26,-1.60
2008,02,14,03,27,-1.60
2008,02,14,03,28,-1.60
2008,02,14,03,29,-1.60
2008,02,14,03,30,-1.50
2008,02,14,03,31,-1.50
2008,02,14,03,32,-1.50
2008,02,14,03,33,-1.50
2008,02,14,03,34,-1.50
2008,02,14,03,35,-1.50
2008,02,14,03,36,-1.50
2008,02,14,03,37,-1.50
2008,02,14,03,38,-1.60
2008,02,14,03,39,-1.60
2008,02,14,03,40,-1.60
2008,02,14,03,41,-1.60
2008,02,14,03,42,-1.70
2008,02,14,03,43,-1.70
2008,02,14,03,44,-1.70
2008,02,14,03,45,-1.70
2008,02,14,03,46,-1.70
2008,02,14,03,47,-1.70
2008,02,14,03,48,-1.70
2008,02,14,03,49,-1.70
2008,02,14,03,50,-1.70
2008,02,14,03,51,-1.70
2008,02,14,03,52,-1.70
2008,02,14,03,53,-1.70
2008,02,14,03,54,-1.70
2008,02,14,03,55,-1.70
2008,02,14,03,56,-1.70
2008,02,14,03,57,-1.70
2008,02,14,03,58,-1.70
2008,02,14,03,59,-1.70
2008,02,14,04,00,-1.70
2008,02,14,04,01,-1.60
2008,02,14,04,02,-1.60
2008,02,14,04,03,-1.60
2008,02,14,04,04,-1.60
2008,02,14,04,05,-1.60
2008,02,14,04,06,-1.60
2008,02,14,04,07,-1.60
2008,02,14,04,08,-1.50
2008,02,14,04,09,-1.40
2008,02,14,04,10,-1.40
2008,02,14,04,11,-1.40
2008,02,14,04,12,-1.30
2008,02,14,04,13,-1.30
2008,02,14,04,14,-1.30
2008,02,14,04,15,-1.20
2008,02,14,04,16,-1.20
2008,02,14,04,17,-1.20
2008,02,14,04,18,-1.20
2008,02,14,04,19,-1.20
2008,02,14,04,20,-1.20
2008,02,14,04,21,-1.20
2008,02,14,04,22,-1.20
2008,02,14,04,23,-1.20
2008,02,14,04,24,-1.20
2008,02,14,04,25,-1.20
2008,02,14,04,26,-1.20
2008,02,14,04,27,-1.20
2008,02,14,04,28,-1.20
2008,02,14,04,29,-1.20
2008,02,14,04,30,-1.20
2008,02,14,04,31,-1.20
2008,02,14,04,32,-1.20
2008,02,14,04,33,-1.20
2008,02,14,04,34,-1.20
2008,02,14,04,35,-1.20
2008,02,14,04,36,-1.20
2008,02,14,04,37,-1.20
2008,02,14,04,38,-1.10
2008,02,14,04,39,-1.10
2008,02,14,04,40,-1.10
2008,02,14,04,41,-1.00
2008,02,14,04,42,-1.00
2008,02,14,04,43,-0.90
2008,02,14,04,44,-0.90
2008,02,14,04,45,-0.90
2008,02,14,04,46,-0.80
2008,02,14,04,47,-0.80
2008,02,14,04,48,-0.70
2008,02,14,04,49,-0.70
2008,02,14,04,50,-0.60
2008,02,14,04,51,-0.60
2008,02,14,04,52,-0.60
2008,02,14,04,53,-0.60
2008,02,14,04,54,-0.60
2008,02,14,04,55,-0.60
2008,02,14,04,56,-0.60
2008,02,14,04,57,-0.60
2008,02,14,04,58,-0.60
2008,02,14,04,59,-0.60
2008,02,14,05,00,-0.60
2008,02,14,05,01,-0.60
2008,02,14,05,02,-0.60
2008,02,14,05,03,-0.70
2008,02,14,05,04,-0.70
2008,02,14,05,05,-0.70
2008,02,14,05,06,-0.70
2008,02,14,05,07,-0.70
2008,02,14,05,08,-0.70
2008,02,14,05,09,-0.70
2008,02,14,05,10,-0.70
2008,02,14,05,11,-0.70
2008,02,14,05,12,-0.70
2008,02,14,05,13,-0.70
2008,02,14,05,14,-0.70
2008,02,14,05,15,-0.70
2008,02,14,05,16,-0.70
2008,02,14,05,17,-0.70
2008,02,14,05,18,-0.70
2008,02,14,05,19,-0.70
2008,02,14,05,20,-0.70
2008,02,14,05,21,-0.70
2008,02,14,05,22,-0.70
2008,02,14,05,23,-0.70
2008,02,14,05,24,-0.70
2008,02,14,05,25,-0.70
2008,02,14,05,26,-0.70
2008,02,14,05,27,-0.70
2008,02,14,05,28,-0.70
2008,02,14,05,29,-0.70
2008,02,14,05,30,-0.70
2008,02,14,05,31,-0.70
2008,02,14,05,32,-0.70
2008,02,14,05,33,-0.70
2008,02,14,05,34,-0.70
2008,02,14,05,35,-0.70
2008,02,14,05,36,-0.70
2008,02,14,05,37,-0.70
2008,02,14,05,38,-0.70
2008,02,14,05,39,-0.70
2008,02,14,05,40,-0.70
2008,02,14,05,41,-0.60
2008,02,14,05,42,-0.60
2008,02,14,05,43,-0.60
2008,02,14,05,44,-0.60
2008,02,14,05,45,-0.50
2008,02,14,05,46,-0.50
2008,02,14,05,47,-0.50
2008,02,14,05,48,-0.40
2008,02,14,05,49,-0.40
2008,02,14,05,50,-0.40
2008,02,14,05,51,-0.40
2008,02,14,05,52,-0.40
2008,02,14,05,53,-0.40
2008,02,14,05,54,-0.40
2008,02,14,05,55,-0.40
2008,02,14,05,56,-0.40
2008,02,14,05,57,-0.40
2008,02,14,05,58,-0.40
2008,02,14,05,59,-0.40
2008,02,14,06,00,-0.30
2008,02,14,06,01,-0.30
2008,02,14,06,02,-0.30
2008,02,14,06,03,-0.20
2008,02,14,06,04,0.00
2008,02,14,06,05,0.10
2008,02,14,06,06,0.10
2008,02,14,06,07,0.20
2008,02,14,06,08,0.20
2008,02,14,06,09,0.10
2008,02,14,06,10,0.00
2008,02,14,06,11,0.00
2008,02,14,06,12,-0.10
2008,02,14,06,13,-0.10
2008,02,14,06,14,-0.10
2008,02,14,06,15,-0.10
2008,02,14,06,16,-0.20
2008,02,14,06,17,-0.20
2008,02,14,06,18,-0.20
2008,02,14,06,19,-0.20
2008,02,14,06,20,-0.20
2008,02,14,06,21,-0.20
2008,02,14,06,22,-0.20
2008,02,14,06,23,-0.20
2008,02,14,06,24,-0.20
2008,02,14,06,25,-0.20
2008,02,14,06,26,-0.20
2008,02,14,06,27,-0.20
2008,02,14,06,28,-0.20
2008,02,14,06,29,-0.20
2008,02,14,06,30,-0.20
2008,02,14,06,31,-0.20
2008,02,14,06,32,-0.20
2008,02,14,06,33,-0.20
2008,02,14,06,34,-0.20
2008,02,14,06,35,-0.20
2008,02,14,06,36,-0.20
2008,02,14,06,37,-0.20
2008,02,14,06,38,-0.20
2008,02,14,06,39,-0.20
2008,02,14,06,40,-0.20
2008,02,14,06,41,-0.20
2008,02,14,06,42,-0.20
2008,02,14,06,43,-0.20
2008,02,14,06,44,-0.20
2008,02,14,06,45,-0.20
2008,02,14,06,46,-0.20
2008,02,14,06,47,-0.20
2008,02,14,06,48,-0.20
2008,02,14,06,49,-0.20
2008,02,14,06,50,-0.20
2008,02,14,06,51,-0.20
2008,02,14,06,52,-0.20
2008,02,14,06,53,-0.20
2008,02,14,06,54,-0.20
2008,02,14,06,55,-0.20
2008,02,14,06,56,-0.20
2008,02,14,06,57,-0.20
2008,02,14,06,58,-0.10
2008,02,14,06,59,-0.10
2008,02,14,07,00,-0.10
2008,02,14,07,01,-0.10
2008,02,14,07,02,-0.10
2008,02,14,07,03,-0.10
2008,02,14,07,04,-0.10
2008,02,14,07,05,0.00
2008,02,14,07,06,0.00
2008,02,14,07,07,0.00
2008,02,14,07,08,0.00
2008,02,14,07,09,0.00
2008,02,14,07,10,0.00
2008,02,14,07,11,0.00
2008,02,14,07,12,0.00
2008,02,14,07,13,0.00
2008,02,14,07,14,0.00
2008,02,14,07,15,0.00
2008,02,14,07,16,-0.10
2008,02,14,07,17,-0.10
2008,02,14,07,18,-0.10
2008,02,14,07,19,-0.10
2008,02,14,07,20,-0.10
2008,02,14,07,21,-0.10
2008,02,14,07,22,-0.10
2008,02,14,07,23,0.00
2008,02,14,07,24,0.00
2008,02,14,07,25,0.00
2008,02,14,07,26,-0.10
2008,02,14,07,27,-0.10
2008,02,14,07,28,-0.10
2008,02,14,07,29,-0.10
2008,02,14,07,30,-0.10
2008,02,14,07,31,-0.10
2008,02,14,07,32,-0.10
2008,02,14,07,33,-0.10
2008,02,14,07,34,-0.10
2008,02,14,07,35,-0.10
2008,02,14,07,36,-0.10
2008,02,14,07,37,-0.10
2008,02,14,07,38,0.00
2008,02,14,07,39,0.00
2008,02,14,07,40,0.00
2008,02,14,07,41,0.00
2008,02,14,07,42,0.00
2008,02,14,07,43,0.10
2008,02,14,07,44,0.10
2008,02,14,07,45,0.10
2008,02,14,07,46,0.10
2008,02,14,07,47,0.10
2008,02,14,07,48,0.10
2008,02,14,07,49,0.10
2008,02,14,07,50,0.10
2008,02,14,07,51,0.10
2008,02,14,07,52,0.10
2008,02,14,07,53,0.20
2008,02,14,07,54,0.20
2008,02,14,07,55,0.20
2008,02,14,07,56,0.20
2008,02,14,07,57,0.20
2008,02,14,07,58,0.20
2008,02,14,07,59,0.20
2008,02,14,08,00,0.20
2008,02,14,08,01,0.20
2008,02,14,08,02,0.20
2008,02,14,08,03,0.30
2008,02,14,08,04,0.30
2008,02,14,08,05,0.30
2008,02,14,08,06,0.30
2008,02,14,08,07,0.30
2008,02,14,08,08,0.30
2008,02,14,08,09,0.30
2008,02,14,08,10,0.20
2008,02,14,08,11,0.30
2008,02,14,08,12,0.30
2008,02,14,08,13,0.30
2008,02,14,08,14,0.30
2008,02,14,08,15,0.30
2008,02,14,08,16,0.30
2008,02,14,08,17,0.30
2008,02,14,08,18,0.30
2008,02,14,08,19,0.30
2008,02,14,08,20,0.30
2008,02,14,08,21,0.30
2008,02,14,08,22,0.40
2008,02,14,08,23,0.40
2008,02,14,08,24,0.40
2008,02,14,08,25,0.40
2008,02,14,08,26,0.40
2008,02,14,08,27,0.40
2008,02,14,08,28,0.50
2008,02,14,08,29,0.50
2008,02,14,08,30,0.50
2008,02,14,08,31,0.60
2008,02,14,08,32,0.60
2008,02,14,08,33,0.60
2008,02,14,08,34,0.60
2008,02,14,08,35,0.60
2008,02,14,08,36,0.70
2008,02,14,08,37,0.70
2008,02,14,08,38,0.70
2008,02,14,08,39,0.70
2008,02,14,08,40,0.70
2008,02,14,08,41,0.70
2008,02,14,08,42,0.80
2008,02,14,08,43,0.80
2008,02,14,08,44,0.80
2008,02,14,08,45,0.90
2008,02,14,08,46,0.90
2008,02,14,08,47,1.00
2008,02,14,08,48,1.00
2008,02,14,08,49,1.10
2008,02,14,08,50,1.10
2008,02,14,08,51,1.10
2008,02,14,08,52,1.20
2008,02,14,08,53,1.20
2008,02,14,08,54,1.20
2008,02,14,08,55,1.20
2008,02,14,08,56,1.30
2008,02,14,08,57,1.30
2008,02,14,08,58,1.30
2008,02,14,08,59,1.30
2008,02,14,09,00,1.30
2008,02,14,09,01,1.30
2008,02,14,09,02,1.30
2008,02,14,09,03,1.30
2008,02,14,09,04,1.30
2008,02,14,09,05,1.30
2008,02,14,09,06,1.30
2008,02,14,09,07,1.30
2008,02,14,09,08,1.30
2008,02,14,09,09,1.30
2008,02,14,09,10,1.30
2008,02,14,09,11,1.30
2008,02,14,09,12,1.40
2008,02,14,09,13,1.40
2008,02,14,09,14,1.40
2008,02,14,09,15,1.50
2008,02,14,09,16,1.50
2008,02,14,09,17,1.50
2008,02,14,09,18,1.50
2008,02,14,09,19,1.60
2008,02,14,09,20,1.60
2008,02,14,09,21,1.60
2008,02,14,09,22,1.60
2008,02,14,09,23,1.70
2008,02,14,09,24,1.70
2008,02,14,09,25,1.70
2008,02,14,09,26,1.70
2008,02,14,09,27,1.70
2008,02,14,09,28,1.70
2008,02,14,09,29,1.80
2008,02,14,09,30,1.80
2008,02,14,09,31,1.80
2008,02,14,09,32,1.80
2008,02,14,09,33,1.80
2008,02,14,09,34,1.90
2008,02,14,09,35,1.90
2008,02,14,09,36,1.90
2008,02,14,09,37,1.90
2008,02,14,09,38,1.90
2008,02,14,09,39,2.00
2008,02,14,09,40,2.00
2008,02,14,09,41,2.10
2008,02,14,09,42,2.10
2008,02,14,09,43,2.10
2008,02,14,09,44,2.20
2008,02,14,09,45,2.20
2008,02,14,09,46,2.20
2008,02,14,09,47,2.20
2008,02,14,09,48,2.20
2008,02,14,09,49,2.20
2008,02,14,09,50,2.20
2008,02,14,09,51,2.20
2008,02,14,09,52,2.20
2008,02,14,09,53,2.30
2008,02,14,09,54,2.30
2008,02,14,09,55,2.30
2008,02,14,09,56,2.30
2008,02,14,09,57,2.30
2008,02,14,09,58,2.30
2008,02,14,09,59,2.40
2008,02,14,10,00,2.40
2008,02,14,10,01,2.40
2008,02,14,10,02,2.40
2008,02,14,10,03,2.50
2008,02,14,10,04,2.50
2008,02,14,10,05,2.50
2008,02,14,10,06,2.60
2008,02,14,10,07,2.60
2008,02,14,10,08,2.70
2008,02,14,10,09,2.70
2008,02,14,10,10,2.70
2008,02,14,10,11,2.80
2008,02,14,10,12,2.80
2008,02,14,10,13,2.80
2008,02,14,10,14,2.90
2008,02,14,10,15,2.90
2008,02,14,10,16,3.00
2008,02,14,10,17,3.00
2008,02,14,10,18,3.10
2008,02,14,10,19,3.10
2008,02,14,10,20,3.10
2008,02,14,10,21,3.20
2008,02,14,10,22,3.20
2008,02,14,10,23,3.30
2008,02,14,10,24,3.40
2008,02,14,10,25,3.40
2008,02,14,10,26,3.50
2008,02,14,10,27,3.50
2008,02,14,10,28,3.60
2008,02,14,10,29,3.60
2008,02,14,10,30,3.70
2008,02,14,10,31,3.70
2008,02,14,10,32,3.70
2008,02,14,10,33,3.80
2008,02,14,10,34,3.80
2008,02,14,10,35,3.80
2008,02,14,10,36,3.80
2008,02,14,10,37,3.90
2008,02,14,10,38,3.90
2008,02,14,10,39,3.90
2008,02,14,10,40,3.90
2008,02,14,10,41,3.90
2008,02,14,10,42,4.00
2008,02,14,10,43,4.00
2008,02,14,10,44,4.00
2008,02,14,10,45,4.00
2008,02,14,10,46,4.10
2008,02,14,10,47,4.10
2008,02,14,10,48,4.10
2008,02,14,10,49,4.10
2008,02,14,10,50,4.20
2008,02,14,10,51,4.20
2008,02,14,10,52,4.20
2008,02,14,10,53,4.30
2008,02,14,10,54,4.30
2008,02,14,10,55,4.40
2008,02,14,10,56,4.40
2008,02,14,10,57,4.40
2008,02,14,10,58,4.50
2008,02,14,10,59,4.50
2008,02,14,11,00,4.60
2008,02,14,11,01,4.60
2008,02,14,11,02,4.60
2008,02,14,11,03,4.70
2008,02,14,11,04,4.70
2008,02,14,11,05,4.80
2008,02,14,11,06,4.80
2008,02,14,11,07,4.80
2008,02,14,11,08,4.80
2008,02,14,11,09,4.90
2008,02,14,11,10,4.90
2008,02,14,11,11,4.90
2008,02,14,11,12,5.00
2008,02,14,11,13,5.00
2008,02,14,11,14,5.10
2008,02,14,11,15,5.10
2008,02,14,11,16,5.10
2008,02,14,11,17,5.10
2008,02,14,11,18,5.10
2008,02,14,11,19,5.10
2008,02,14,11,20,5.20
2008,02,14,11,21,5.20
2008,02,14,11,22,5.20
2008,02,14,11,23,5.20
2008,02,14,11,24,5.20
2008,02,14,11,25,5.20
2008,02,14,11,26,5.30
2008,02,14,11,27,5.30
2008,02,14,11,28,5.30
2008,02,14,11,29,5.30
2008,02,14,11,30,5.30
2008,02,14,11,31,5.30
2008,02,14,11,32,5.40
2008,02,14,11,33,5.40
2008,02,14,11,34,5.40
2008,02,14,11,35,5.50
2008,02,14,11,36,5.50
2008,02,14,11,37,5.50
2008,02,14,11,38,5.60
2008,02,14,11,39,5.60
2008,02,14,11,40,5.60
2008,02,14,11,41,5.60
2008,02,14,11,42,5.70
2008,02,14,11,43,5.70
2008,02,14,11,44,5.70
2008,02,14,11,45,5.70
2008,02,14,11,46,5.80
2008,02,14,11,47,5.80
2008,02,14,11,48,5.80
2008,02,14,11,49,5.80
2008,02,14,11,50,5.80
2008,02,14,11,51,5.90
2008,02,14,11,52,5.90
2008,02,14,11,53,5.90
2008,02,14,11,54,5.90
2008,02,14,11,55,6.00
2008,02,14,11,56,6.00
2008,02,14,11,57,6.00
2008,02,14,11,58,6.10
2008,02,14,11,59,6.10
2008,02,14,12,00,6.10
2008,02,14,12,01,6.10
2008,02,14,12,02,6.20
2008,02,14,12,03,6.20
2008,02,14,12,04,6.20
2008,02,14,12,05,6.20
2008,02,14,12,06,6.20
2008,02,14,12,07,6.20
2008,02,14,12,08,6.20
2008,02,14,12,09,6.20
2008,02,14,12,10,6.20
2008,02,14,12,11,6.30
2008,02,14,12,12,6.30
2008,02,14,12,13,6.30
2008,02,14,12,14,6.30
2008,02,14,12,15,6.30
2008,02,14,12,16,6.30
2008,02,14,12,17,6.30
2008,02,14,12,18,6.30
2008,02,14,12,19,6.40
2008,02,14,12,20,6.40
2008,02,14,12,21,6.40
2008,02,14,12,22,6.40
2008,02,14,12,23,6.40
2008,02,14,12,24,6.50
2008,02,14,12,25,6.50
2008,02,14,12,26,6.50
2008,02,14,12,27,6.60
2008,02,14,12,28,6.60
2008,02,14,12,29,6.60
2008,02,14,12,30,6.70
2008,02,14,12,31,6.70
2008,02,14,12,32,6.70
2008,02,14,12,33,6.80
2008,02,14,12,34,6.80
2008,02,14,12,35,6.90
2008,02,14,12,36,6.90
2008,02,14,12,37,6.90
2008,02,14,12,38,7.00
2008,02,14,12,39,7.00
2008,02,14,12,40,7.00
2008,02,14,12,41,7.10
2008,02,14,12,42,7.10
2008,02,14,12,43,7.10
2008,02,14,12,44,7.20
2008,02,14,12,45,7.10
2008,02,14,12,46,7.10
2008,02,14,12,47,7.10
2008,02,14,12,48,7.10
2008,02,14,12,49,7.10
2008,02,14,12,50,7.10
2008,02,14,12,51,7.10
2008,02,14,12,52,7.20
2008,02,14,12,53,7.20
2008,02,14,12,54,7.20
2008,02,14,12,55,7.20
2008,02,14,12,56,7.20
2008,02,14,12,57,7.20
2008,02,14,12,58,7.20
2008,02,14,12,59,7.20
2008,02,14,13,00,7.20
2008,02,14,13,01,7.20
2008,02,14,13,02,7.20
2008,02,14,13,03,7.20
2008,02,14,13,04,7.20
2008,02,14,13,05,7.20
2008,02,14,13,06,7.20
2008,02,14,13,07,7.20
2008,02,14,13,08,7.20
2008,02,14,13,09,7.20
2008,02,14,13,10,7.20
2008,02,14,13,11,7.20
2008,02,14,13,12,7.20
2008,02,14,13,13,7.20
2008,02,14,13,14,7.20
2008,02,14,13,15,7.20
2008,02,14,13,16,7.20
2008,02,14,13,17,7.20
2008,02,14,13,18,7.20
2008,02,14,13,19,7.20
2008,02,14,13,20,7.20
2008,02,14,13,21,7.20
2008,02,14,13,22,7.20
2008,02,14,13,23,7.20
2008,02,14,13,24,7.20
2008,02,14,13,25,7.20
2008,02,14,13,26,7.20
2008,02,14,13,27,7.20
2008,02,14,13,28,7.20
2008,02,14,13,29,7.20
2008,02,14,13,30,7.20
2008,02,14,13,31,7.20
2008,02,14,13,32,7.20
2008,02,14,13,33,7.20
2008,02,14,13,34,7.20
2008,02,14,13,35,7.20
2008,02,14,13,36,7.20
2008,02,14,13,37,7.20
2008,02,14,13,38,7.20
2008,02,14,13,39,7.20
2008,02,14,13,40,7.20
2008,02,14,13,41,7.20
2008,02,14,13,42,7.20
2008,02,14,13,43,7.20
2008,02,14,13,44,7.20
2008,02,14,13,45,7.20
2008,02,14,13,46,7.20
2008,02,14,13,47,7.20
2008,02,14,13,48,7.20
2008,02,14,13,49,7.20
2008,02,14,13,50,7.30
2008,02,14,13,51,7.20
2008,02,14,13,52,7.20
2008,02,14,13,53,7.20
2008,02,14,13,54,7.20
2008,02,14,13,55,7.20
2008,02,14,13,56,7.20
2008,02,14,13,57,7.20
2008,02,14,13,58,7.20
2008,02,14,13,59,7.20
2008,02,14,14,00,7.20
2008,02,14,14,01,7.20
2008,02,14,14,02,7.20
2008,02,14,14,03,7.20
2008,02,14,14,04,7.20
2008,02,14,14,05,7.30
2008,02,14,14,06,7.30
2008,02,14,14,07,7.30
2008,02,14,14,08,7.30
2008,02,14,14,09,7.30
2008,02,14,14,10,7.30
2008,02,14,14,11,7.20
2008,02,14,14,12,7.20
2008,02,14,14,13,7.20
2008,02,14,14,14,7.20
2008,02,14,14,15,7.20
2008,02,14,14,16,7.20
2008,02,14,14,17,7.30
2008,02,14,14,18,7.30
2008,02,14,14,19,7.30
2008,02,14,14,20,7.30
2008,02,14,14,21,7.30
2008,02,14,14,22,7.30
2008,02,14,14,23,7.30
2008,02,14,14,24,7.30
2008,02,14,14,25,7.30
2008,02,14,14,26,7.30
2008,02,14,14,27,7.30
2008,02,14,14,28,7.30
2008,02,14,14,29,7.30
2008,02,14,14,30,7.30
2008,02,14,14,31,7.20
2008,02,14,14,32,7.20
2008,02,14,14,33,7.20
2008,02,14,14,34,7.20
2008,02,14,14,35,7.20
2008,02,14,14,36,7.20
2008,02,14,14,37,7.20
2008,02,14,14,38,7.20
2008,02,14,14,39,7.20
2008,02,14,14,40,7.20
2008,02,14,14,41,7.20
2008,02,14,14,42,7.20
2008,02,14,14,43,7.20
2008,02,14,14,44,7.20
2008,02,14,14,45,7.20
2008,02,14,14,46,7.20
2008,02,14,14,47,7.20
2008,02,14,14,48,7.20
2008,02,14,14,49,7.20
2008,02,14,14,50,7.20
2008,02,14,14,51,7.20
2008,02,14,14,52,7.20
2008,02,14,14,53,7.20
2008,02,14,14,54,7.20
2008,02,14,14,55,7.20
2008,02,14,14,56,7.20
2008,02,14,14,57,7.20
2008,02,14,14,58,7.20
2008,02,14,14,59,7.20
2008,02,14,15,00,7.30
2008,02,14,15,01,7.30
2008,02,14,15,02,7.30
2008,02,14,15,03,7.30
2008,02,14,15,04,7.40
2008,02,14,15,05,7.40
2008,02,14,15,06,7.40
2008,02,14,15,07,7.40
2008,02,14,15,08,7.40
2008,02,14,15,09,7.50
2008,02,14,15,10,7.50
2008,02,14,15,11,7.50
2008,02,14,15,12,7.50
2008,02,14,15,13,7.60
2008,02,14,15,14,7.60
2008,02,14,15,15,7.60
2008,02,14,15,16,7.60
2008,02,14,15,17,7.60
2008,02,14,15,18,7.60
2008,02,14,15,19,7.60
2008,02,14,15,20,7.60
2008,02,14,15,21,7.60
2008,02,14,15,22,7.60
2008,02,14,15,23,7.60
2008,02,14,15,24,7.60
2008,02,14,15,25,7.60
2008,02,14,15,26,7.60
2008,02,14,15,27,7.60
2008,02,14,15,28,7.60
2008,02,14,15,29,7.60
2008,02,14,15,30,7.60
2008,02,14,15,31,7.60
2008,02,14,15,32,7.60
2008,02,14,15,33,7.60
2008,02,14,15,34,7.60
2008,02,14,15,35,7.60
2008,02,14,15,36,7.60
2008,02,14,15,37,7.60
2008,02,14,15,38,7.60
2008,02,14,15,39,7.60
2008,02,14,15,40,7.60
2008,02,14,15,41,7.60
2008,02,14,15,42,7.60
2008,02,14,15,43,7.60
2008,02,14,15,44,7.60
2008,02,14,15,45,7.60
2008,02,14,15,46,7.60
2008,02,14,15,47,7.60
2008,02,14,15,48,7.60
2008,02,14,15,49,7.60
2008,02,14,15,50,7.60
2008,02,14,15,51,7.50
2008,02,14,15,52,7.50
2008,02,14,15,53,7.50
2008,02,14,15,54,7.50
2008,02,14,15,55,7.50
2008,02,14,15,56,7.50
2008,02,14,15,57,7.50
2008,02,14,15,58,7.50
2008,02,14,15,59,7.50
2008,02,14,16,00,7.50
2008,02,14,16,01,7.50
2008,02,14,16,02,7.50
2008,02,14,16,03,7.60
2008,02,14,16,04,7.60
2008,02,14,16,05,7.60
2008,02,14,16,06,7.60
2008,02,14,16,07,7.60
2008,02,14,16,08,7.60
2008,02,14,16,09,7.60
2008,02,14,16,10,7.60
2008,02,14,16,11,7.60
2008,02,14,16,12,7.60
2008,02,14,16,13,7.60
2008,02,14,16,14,7.60
2008,02,14,16,15,7.60
2008,02,14,16,16,7.60
2008,02,14,16,17,7.70
2008,02,14,16,18,7.70
2008,02,14,16,19,7.60
2008,02,14,16,20,7.60
2008,02,14,16,21,7.70
2008,02,14,16,22,7.70
2008,02,14,16,23,7.70
2008,02,14,16,24,7.70
2008,02,14,16,25,7.70
2008,02,14,16,26,7.70
2008,02,14,16,27,7.70
2008,02,14,16,28,7.70
2008,02,14,16,29,7.70
2008,02,14,16,30,7.60
2008,02,14,16,31,7.60
2008,02,14,16,32,7.60
2008,02,14,16,33,7.60
2008,02,14,16,34,7.60
2008,02,14,16,35,7.60
2008,02,14,16,36,7.60
2008,02,14,16,37,7.60
2008,02,14,16,38,7.60
2008,02,14,16,39,7.60
2008,02,14,16,40,7.50
2008,02,14,16,41,7.50
2008,02,14,16,42,7.50
2008,02,14,16,43,7.50
2008,02,14,16,44,7.50
2008,02,14,16,45,7.40
2008,02,14,16,46,7.40
2008,02,14,16,47,7.40
2008,02,14,16,48,7.40
2008,02,14,16,49,7.40
2008,02,14,16,50,7.40
2008,02,14,16,51,7.30
2008,02,14,16,52,7.30
2008,02,14,16,53,7.30
2008,02,14,16,54,7.30
2008,02,14,16,55,7.20
2008,02,14,16,56,7.20
2008,02,14,16,57,7.20
2008,02,14,16,58,7.20
2008,02,14,16,59,7.20
2008,02,14,17,00,7.20
2008,02,14,17,01,7.10
2008,02,14,17,02,7.10
2008,02,14,17,03,7.10
2008,02,14,17,04,7.10
2008,02,14,17,05,7.10
2008,02,14,17,06,7.10
2008,02,14,17,07,7.10
2008,02,14,17,08,7.00
2008,02,14,17,09,7.00
2008,02,14,17,10,7.00
2008,02,14,17,11,7.00
2008,02,14,17,12,7.00
2008,02,14,17,13,7.00
2008,02,14,17,14,7.00
2008,02,14,17,15,6.90
2008,02,14,17,16,6.90
2008,02,14,17,17,6.90
2008,02,14,17,18,6.90
2008,02,14,17,19,6.80
2008,02,14,17,20,6.80
2008,02,14,17,21,6.80
2008,02,14,17,22,6.80
2008,02,14,17,23,6.80
2008,02,14,17,24,6.80
2008,02,14,17,25,6.80
2008,02,14,17,26,6.70
2008,02,14,17,27,6.70
2008,02,14,17,28,6.70
2008,02,14,17,29,6.70
2008,02,14,17,30,6.70
2008,02,14,17,31,6.70
2008,02,14,17,32,6.60
2008,02,14,17,33,6.60
2008,02,14,17,34,6.60
2008,02,14,17,35,6.60
2008,02,14,17,36,6.60
2008,02,14,17,37,6.60
2008,02,14,17,38,6.60
2008,02,14,17,39,6.60
2008,02,14,17,40,6.50
2008,02,14,17,41,6.50
2008,02,14,17,42,6.50
2008,02,14,17,43,6.50
2008,02,14,17,44,6.50
2008,02,14,17,45,6.50
2008,02,14,17,46,6.50